| time (UTC) | temp C | wind direction | speed KPH | gust KPH | rain 1hr cm | rain 24hr cm | rain mn cm | humidity % | barometer mb |
| 20260502160358 | 32 | 247 | 1.6 | 1.6 | 0.00 | 0.00 | 0.00 | 19 | 1012.4 |
| 20260502151856 | 32 | 343 | 0.0 | 1.6 | 0.00 | 0.00 | 0.00 | 17 | 1012.9 |
| 20260502151355 | 31 | 357 | 0.0 | 0.0 | 0.00 | 0.00 | 0.00 | 18 | 1013.0 |
| 20260502150855 | 31 | 331 | 0.0 | 4.8 | 0.00 | 0.00 | 0.00 | 19 | 1013.1 |
| 20260502150355 | 31 | 333 | 0.0 | 8.0 | 0.00 | 0.00 | 0.00 | 18 | 1013.2 |
| 20260502130348 | 30 | 309 | 0.0 | 4.8 | 0.00 | 0.00 | 0.00 | 19 | 1014.7 |
| 20260502123346 | 29 | 7 | 0.0 | 4.8 | 0.00 | 0.00 | 0.00 | 22 | 1015.1 |
| 20260502122846 | 29 | 334 | 1.6 | 8.0 | 0.00 | 0.00 | 0.00 | 21 | 1015.2 |
| 20260502122346 | 28 | 174 | 0.0 | 9.7 | 0.00 | 0.00 | 0.00 | 23 | 1015.2 |
| 20260502121845 | 29 | 315 | 0.0 | 9.7 | 0.00 | 0.00 | 0.00 | 21 | 1015.2 |
| 20260502121345 | 29 | 68 | 1.6 | 6.4 | 0.00 | 0.00 | 0.00 | 22 | 1015.2 |
| 20260502120845 | 28 | 239 | 0.0 | 3.2 | 0.00 | 0.00 | 0.00 | 24 | 1015.3 |
| 20260502120344 | 28 | 201 | 0.0 | 6.4 | 0.00 | 0.00 | 0.00 | 24 | 1015.4 |
| 20260502115844 | 28 | 316 | 1.6 | 6.4 | 0.00 | 0.00 | 0.00 | 25 | 1015.4 |
| 20260502115344 | 28 | 21 | 1.6 | 6.4 | 0.00 | 0.00 | 0.00 | 24 | 1015.5 |
| 20260502114844 | 27 | 295 | 0.0 | 8.0 | 0.00 | 0.00 | 0.00 | 26 | 1015.5 |
| 20260502114343 | 27 | 247 | 0.0 | 1.6 | 0.00 | 0.00 | 0.00 | 28 | 1015.7 |
| 20260502113843 | 27 | 243 | 0.0 | 4.8 | 0.00 | 0.00 | 0.00 | 28 | 1015.8 |
| 20260502113343 | 26 | 136 | 3.2 | 6.4 | 0.00 | 0.00 | 0.00 | 27 | 1015.9 |
| 20260502112843 | 26 | 85 | 4.8 | 4.8 | 0.00 | 0.00 | 0.00 | 27 | 1016.0 |
| 20260502112342 | 26 | 288 | 0.0 | 8.0 | 0.00 | 0.00 | 0.00 | 29 | 1016.1 |
| 20260502111842 | 26 | 247 | 3.2 | 8.0 | 0.00 | 0.00 | 0.00 | 30 | 1016.2 |
| 20260502111342 | 25 | 247 | 0.0 | 3.2 | 0.00 | 0.00 | 0.00 | 32 | 1016.2 |
| 20260502110841 | 25 | 232 | 3.2 | 6.4 | 0.00 | 0.00 | 0.00 | 31 | 1016.3 |
| 20260502110341 | 25 | 19 | 1.6 | 8.0 | 0.00 | 0.00 | 0.00 | 31 | 1016.3 |
| 20260502105841 | 25 | 143 | 0.0 | 4.8 | 0.00 | 0.00 | 0.00 | 32 | 1016.3 |
| 20260502105341 | 24 | 70 | 1.6 | 8.0 | 0.00 | 0.00 | 0.00 | 31 | 1016.4 |
| 20260502104840 | 24 | 99 | 0.0 | 9.7 | 0.00 | 0.00 | 0.00 | 31 | 1016.5 |
| 20260502104340 | 24 | 53 | 0.0 | 11.3 | 0.00 | 0.00 | 0.00 | 31 | 1016.6 |
| 20260502103840 | 24 | 42 | 1.6 | 6.4 | 0.00 | 0.00 | 0.00 | 32 | 1016.7 |
| 20260502103339 | 23 | 352 | 0.0 | 8.0 | 0.00 | 0.00 | 0.00 | 32 | 1016.7 |
| 20260502102839 | 23 | 23 | 1.6 | 8.0 | 0.00 | 0.00 | 0.00 | 33 | 1016.8 |
| 20260502102339 | 23 | 212 | 0.0 | 4.8 | 0.00 | 0.00 | 0.00 | 35 | 1016.8 |
| 20260502101839 | 22 | 291 | 3.2 | 6.4 | 0.00 | 0.00 | 0.00 | 36 | 1016.9 |
| 20260502101338 | 22 | 25 | 0.0 | 8.0 | 0.00 | 0.00 | 0.00 | 35 | 1017.0 |
| 20260502100838 | 22 | 2 | 0.0 | 4.8 | 0.00 | 0.00 | 0.00 | 36 | 1017.0 |
| 20260502100338 | 22 | 125 | 4.8 | 6.4 | 0.00 | 0.00 | 0.00 | 36 | 1017.0 |
| 20260502091335 | 20 | 284 | 3.2 | 4.8 | 0.00 | 0.00 | 0.00 | 40 | 1017.6 |
| 20260502090835 | 20 | 108 | 0.0 | 6.4 | 0.00 | 0.00 | 0.00 | 39 | 1017.7 |
| 20260502090334 | 20 | 137 | 0.0 | 6.4 | 0.00 | 0.00 | 0.00 | 40 | 1017.7 |
| 20260502071328 | 17 | 80 | 0.0 | 0.0 | 0.00 | 0.00 | 0.00 | 52 | 1018.2 |
| 20260502070828 | 16 | 80 | 0.0 | 0.0 | 0.00 | 0.00 | 0.00 | 52 | 1018.2 |
| 20260502070328 | 16 | 80 | 0.0 | 3.2 | 0.00 | 0.00 | 0.00 | 52 | 1018.2 |
| 20260502065827 | 16 | 272 | 0.0 | 3.2 | 0.00 | 0.00 | 0.00 | 52 | 1018.2 |
| 20260502065327 | 16 | 215 | 0.0 | 1.6 | 0.00 | 0.00 | 0.00 | 52 | 1018.3 |
| 20260502064827 | 16 | 215 | 0.0 | 3.2 | 0.00 | 0.00 | 0.00 | 53 | 1018.3 |
| 20260502064326 | 16 | 275 | 0.0 | 3.2 | 0.00 | 0.00 | 0.00 | 54 | 1018.4 |
| 20260502063826 | 16 | 262 | 3.2 | 4.8 | 0.00 | 0.00 | 0.00 | 54 | 1018.3 |
| 20260502063326 | 16 | 229 | 0.0 | 0.0 | 0.00 | 0.00 | 0.00 | 55 | 1018.4 |
| 20260502062826 | 16 | 229 | 0.0 | 0.0 | 0.00 | 0.00 | 0.00 | 56 | 1018.3 |
| 20260502062325 | 16 | 229 | 0.0 | 0.0 | 0.00 | 0.00 | 0.00 | 56 | 1018.4 |
| 20260502061825 | 15 | 229 | 0.0 | 1.6 | 0.00 | 0.00 | 0.00 | 56 | 1018.4 |
| 20260502061325 | 15 | 232 | 0.0 | 3.2 | 0.00 | 0.00 | 0.00 | 57 | 1018.3 |
| 20260502060824 | 15 | 250 | 0.0 | 3.2 | 0.00 | 0.00 | 0.00 | 57 | 1018.4 |
| 20260502060324 | 15 | 251 | 0.0 | 1.6 | 0.00 | 0.00 | 0.00 | 58 | 1018.3 |
| 20260502055824 | 15 | 104 | 0.0 | 0.0 | 0.00 | 0.00 | 0.00 | 58 | 1018.3 |
| 20260502055324 | 15 | 104 | 0.0 | 0.0 | 0.00 | 0.00 | 0.00 | 57 | 1018.4 |
| 20260502054823 | 15 | 104 | 0.0 | 0.0 | 0.00 | 0.00 | 0.00 | 58 | 1018.4 |
| 20260502054323 | 14 | 104 | 0.0 | 0.0 | 0.00 | 0.00 | 0.00 | 58 | 1018.4 |
| 20260502053823 | 14 | 104 | 0.0 | 0.0 | 0.00 | 0.00 | 0.00 | 58 | 1018.4 |
| 20260502053322 | 14 | 104 | 0.0 | 0.0 | 0.00 | 0.00 | 0.00 | 58 | 1018.4 |
| 20260502052822 | 14 | 104 | 0.0 | 0.0 | 0.00 | 0.00 | 0.00 | 58 | 1018.5 |
| 20260502052322 | 13 | 104 | 0.0 | 0.0 | 0.00 | 0.00 | 0.00 | 58 | 1018.5 |
| 20260502051822 | 13 | 104 | 0.0 | 0.0 | 0.00 | 0.00 | 0.00 | 59 | 1018.5 |
| 20260502051321 | 13 | 104 | 0.0 | 0.0 | 0.00 | 0.00 | 0.00 | 59 | 1018.5 |
| 20260502050821 | 13 | 104 | 0.0 | 0.0 | 0.00 | 0.00 | 0.00 | 59 | 1018.4 |
| 20260502050321 | 13 | 104 | 0.0 | 0.0 | 0.00 | 0.00 | 0.00 | 59 | 1018.4 |
| 20260502045820 | 13 | 104 | 0.0 | 0.0 | 0.00 | 0.00 | 0.00 | 59 | 1018.4 |
| 20260502045320 | 13 | 104 | 0.0 | 0.0 | 0.00 | 0.00 | 0.00 | 59 | 1018.4 |
| 20260502044820 | 13 | 104 | 0.0 | 0.0 | 0.00 | 0.00 | 0.00 | 59 | 1018.4 |
| 20260502044320 | 13 | 104 | 0.0 | 0.0 | 0.00 | 0.00 | 0.00 | 59 | 1018.4 |
| 20260502043819 | 13 | 104 | 0.0 | 0.0 | 0.00 | 0.00 | 0.00 | 59 | 1018.4 |
| 20260502043319 | 13 | 104 | 0.0 | 0.0 | 0.00 | 0.00 | 0.00 | 59 | 1018.3 |
| 20260502042819 | 13 | 104 | 0.0 | 0.0 | 0.00 | 0.00 | 0.00 | 59 | 1018.2 |
| 20260502042318 | 13 | 104 | 0.0 | 0.0 | 0.00 | 0.00 | 0.00 | 59 | 1018.3 |
| 20260502041818 | 13 | 104 | 0.0 | 0.0 | 0.00 | 0.00 | 0.00 | 59 | 1018.3 |
| 20260502041318 | 13 | 104 | 0.0 | 0.0 | 0.00 | 0.00 | 0.00 | 58 | 1018.3 |
| 20260502040818 | 13 | 104 | 0.0 | 0.0 | 0.00 | 0.00 | 0.00 | 58 | 1018.2 |
| 20260502040317 | 13 | 104 | 0.0 | 0.0 | 0.00 | 0.00 | 0.00 | 58 | 1018.3 |
| 20260502035817 | 13 | 104 | 0.0 | 0.0 | 0.00 | 0.00 | 0.00 | 58 | 1018.3 |
| 20260502035317 | 13 | 104 | 0.0 | 0.0 | 0.00 | 0.00 | 0.00 | 58 | 1018.3 |
| 20260502034816 | 13 | 104 | 0.0 | 0.0 | 0.00 | 0.00 | 0.00 | 58 | 1018.3 |
| 20260502034316 | 13 | 104 | 0.0 | 0.0 | 0.00 | 0.00 | 0.00 | 58 | 1018.3 |
| 20260502033816 | 13 | 104 | 0.0 | 0.0 | 0.00 | 0.00 | 0.00 | 58 | 1018.4 |
| 20260502033316 | 13 | 104 | 0.0 | 0.0 | 0.00 | 0.00 | 0.00 | 57 | 1018.4 |
| 20260502032815 | 13 | 104 | 0.0 | 0.0 | 0.00 | 0.00 | 0.00 | 57 | 1018.4 |
| 20260502032315 | 13 | 104 | 0.0 | 0.0 | 0.00 | 0.00 | 0.00 | 57 | 1018.4 |
| 20260502031815 | 13 | 104 | 0.0 | 0.0 | 0.00 | 0.00 | 0.00 | 57 | 1018.4 |
| 20260502031314 | 14 | 104 | 0.0 | 0.0 | 0.00 | 0.00 | 0.00 | 57 | 1018.4 |
| 20260502030814 | 14 | 104 | 0.0 | 0.0 | 0.00 | 0.00 | 0.00 | 57 | 1018.4 |
| 20260502030314 | 14 | 104 | 0.0 | 0.0 | 0.00 | 0.00 | 0.00 | 56 | 1018.4 |
| 20260502025814 | 14 | 104 | 0.0 | 0.0 | 0.00 | 0.00 | 0.00 | 56 | 1018.4 |
| 20260502025313 | 15 | 104 | 0.0 | 0.0 | 0.00 | 0.00 | 0.00 | 56 | 1018.4 |
| 20260502024813 | 15 | 104 | 0.0 | 0.0 | 0.00 | 0.00 | 0.00 | 55 | 1018.4 |
| 20260502024313 | 15 | 104 | 0.0 | 0.0 | 0.00 | 0.00 | 0.00 | 55 | 1018.5 |
| 20260502023813 | 15 | 104 | 0.0 | 0.0 | 0.00 | 0.00 | 0.00 | 55 | 1018.4 |
| 20260502023312 | 15 | 104 | 0.0 | 0.0 | 0.00 | 0.00 | 0.00 | 55 | 1018.4 |
| 20260502022812 | 15 | 104 | 0.0 | 0.0 | 0.00 | 0.00 | 0.00 | 55 | 1018.5 |
| 20260502022312 | 15 | 104 | 0.0 | 0.0 | 0.00 | 0.00 | 0.00 | 55 | 1018.5 |
| 20260502021811 | 15 | 104 | 0.0 | 0.0 | 0.00 | 0.00 | 0.00 | 55 | 1018.5 |
| 20260502021311 | 15 | 104 | 0.0 | 0.0 | 0.00 | 0.00 | 0.00 | 54 | 1018.5 |
| 20260502020811 | 15 | 104 | 0.0 | 0.0 | 0.00 | 0.00 | 0.00 | 54 | 1018.5 |
| 20260502020311 | 15 | 104 | 0.0 | 0.0 | 0.00 | 0.00 | 0.00 | 54 | 1018.5 |
| 20260502015810 | 15 | 104 | 0.0 | 0.0 | 0.00 | 0.00 | 0.00 | 54 | 1018.5 |
| 20260502015310 | 15 | 104 | 0.0 | 0.0 | 0.00 | 0.00 | 0.00 | 54 | 1018.5 |
| 20260502014810 | 15 | 104 | 0.0 | 0.0 | 0.00 | 0.00 | 0.00 | 54 | 1018.5 |
| 20260502014309 | 15 | 104 | 0.0 | 0.0 | 0.00 | 0.00 | 0.00 | 54 | 1018.6 |
| 20260502013809 | 15 | 104 | 0.0 | 0.0 | 0.00 | 0.00 | 0.00 | 54 | 1018.6 |
| 20260502013309 | 15 | 104 | 0.0 | 0.0 | 0.00 | 0.00 | 0.00 | 54 | 1018.6 |
| 20260502012809 | 15 | 104 | 0.0 | 0.0 | 0.00 | 0.00 | 0.00 | 54 | 1018.7 |
| 20260502012308 | 15 | 104 | 0.0 | 0.0 | 0.00 | 0.00 | 0.00 | 54 | 1018.7 |
| 20260502011808 | 15 | 104 | 0.0 | 0.0 | 0.00 | 0.00 | 0.00 | 53 | 1018.8 |
| 20260502011308 | 15 | 104 | 0.0 | 0.0 | 0.00 | 0.00 | 0.00 | 53 | 1018.8 |
| 20260502010807 | 15 | 104 | 0.0 | 0.0 | 0.00 | 0.00 | 0.00 | 53 | 1018.8 |
| 20260502010307 | 15 | 104 | 0.0 | 0.0 | 0.00 | 0.00 | 0.00 | 53 | 1018.8 |
| 20260502005807 | 16 | 104 | 0.0 | 0.0 | 0.00 | 0.00 | 0.00 | 52 | 1018.9 |
| 20260502005307 | 16 | 104 | 0.0 | 0.0 | 0.00 | 0.00 | 0.00 | 52 | 1019.0 |
| 20260502004806 | 16 | 104 | 0.0 | 0.0 | 0.00 | 0.00 | 0.00 | 52 | 1019.0 |
| 20260502004306 | 16 | 104 | 0.0 | 0.0 | 0.00 | 0.00 | 0.00 | 52 | 1019.0 |
| 20260502003806 | 16 | 104 | 0.0 | 0.0 | 0.00 | 0.00 | 0.00 | 51 | 1019.2 |
| 20260502003305 | 16 | 104 | 0.0 | 0.0 | 0.00 | 0.00 | 0.00 | 51 | 1019.2 |
| 20260502002805 | 16 | 104 | 0.0 | 0.0 | 0.00 | 0.00 | 0.00 | 51 | 1019.2 |
| 20260502002306 | 16 | 104 | 0.0 | 0.0 | 0.00 | 0.00 | 0.00 | 51 | 1019.3 |
| 20260502001805 | 16 | 104 | 0.0 | 0.0 | 0.00 | 0.00 | 0.00 | 51 | 1019.3 |
| 20260502001304 | 16 | 104 | 0.0 | 0.0 | 0.00 | 0.00 | 0.00 | 51 | 1019.3 |
| 20260502000804 | 16 | 104 | 0.0 | 0.0 | 0.00 | 0.00 | 0.00 | 51 | 1019.4 |
| 20260502000304 | 16 | 104 | 0.0 | 0.0 | 0.00 | 0.00 | 0.00 | 51 | 1019.4 |
| 20260501235803 | 16 | 104 | 0.0 | 0.0 | 0.00 | 0.00 | 0.00 | 51 | 1019.4 |
| 20260501235305 | 16 | 104 | 0.0 | 0.0 | 0.00 | 0.00 | 0.00 | 51 | 1019.5 |
| 20260501234803 | 16 | 104 | 0.0 | 0.0 | 0.00 | 0.00 | 0.00 | 50 | 1019.5 |
| 20260501234303 | 16 | 104 | 0.0 | 0.0 | 0.00 | 0.00 | 0.00 | 50 | 1019.5 |
| 20260501233802 | 16 | 104 | 0.0 | 0.0 | 0.00 | 0.00 | 0.00 | 50 | 1019.5 |
| 20260501233302 | 16 | 104 | 0.0 | 0.0 | 0.00 | 0.00 | 0.00 | 49 | 1019.5 |
| 20260501232802 | 16 | 104 | 0.0 | 0.0 | 0.00 | 0.00 | 0.00 | 49 | 1019.5 |
| 20260501232305 | 17 | 104 | 0.0 | 0.0 | 0.00 | 0.00 | 0.00 | 49 | 1019.6 |
| 20260501231801 | 17 | 104 | 0.0 | 0.0 | 0.00 | 0.00 | 0.00 | 49 | 1019.6 |
| 20260501231301 | 17 | 104 | 0.0 | 0.0 | 0.00 | 0.00 | 0.00 | 49 | 1019.6 |
| 20260501230801 | 17 | 104 | 0.0 | 0.0 | 0.00 | 0.00 | 0.00 | 48 | 1019.5 |
| 20260501230300 | 17 | 104 | 0.0 | 0.0 | 0.00 | 0.00 | 0.00 | 48 | 1019.5 |
| 20260501225800 | 17 | 104 | 0.0 | 0.0 | 0.00 | 0.00 | 0.00 | 48 | 1019.6 |
| 20260501225300 | 17 | 104 | 0.0 | 1.6 | 0.00 | 0.00 | 0.00 | 48 | 1019.6 |
| 20260501224759 | 17 | 106 | 0.0 | 0.0 | 0.00 | 0.00 | 0.00 | 48 | 1019.6 |
| 20260501224259 | 17 | 106 | 0.0 | 3.2 | 0.00 | 0.00 | 0.00 | 47 | 1019.6 |
| 20260501223759 | 18 | 102 | 0.0 | 1.6 | 0.00 | 0.00 | 0.00 | 47 | 1019.6 |
| 20260501223259 | 18 | 98 | 0.0 | 0.0 | 0.00 | 0.00 | 0.00 | 46 | 1019.6 |
| 20260501222758 | 18 | 98 | 0.0 | 0.0 | 0.00 | 0.00 | 0.00 | 46 | 1019.6 |
| 20260501222258 | 18 | 98 | 0.0 | 0.0 | 0.00 | 0.00 | 0.00 | 46 | 1019.6 |
| 20260501221758 | 18 | 98 | 0.0 | 0.0 | 0.00 | 0.00 | 0.00 | 46 | 1019.6 |
| 20260501221258 | 18 | 98 | 0.0 | 0.0 | 0.00 | 0.00 | 0.00 | 45 | 1019.6 |
| 20260501220757 | 18 | 98 | 0.0 | 0.0 | 0.00 | 0.00 | 0.00 | 45 | 1019.6 |
| 20260501220257 | 18 | 98 | 0.0 | 0.0 | 0.00 | 0.00 | 0.00 | 45 | 1019.6 |
| 20260501215757 | 18 | 98 | 0.0 | 0.0 | 0.00 | 0.00 | 0.00 | 45 | 1019.6 |
| 20260501215256 | 18 | 98 | 0.0 | 0.0 | 0.00 | 0.00 | 0.00 | 44 | 1019.6 |
| 20260501214756 | 19 | 98 | 0.0 | 0.0 | 0.00 | 0.00 | 0.00 | 44 | 1019.6 |
| 20260501214256 | 19 | 98 | 0.0 | 0.0 | 0.00 | 0.00 | 0.00 | 44 | 1019.5 |
| 20260501213756 | 19 | 98 | 0.0 | 0.0 | 0.00 | 0.00 | 0.00 | 44 | 1019.6 |
| 20260501213255 | 19 | 98 | 0.0 | 0.0 | 0.00 | 0.00 | 0.00 | 43 | 1019.5 |
| 20260501212755 | 20 | 98 | 0.0 | 0.0 | 0.00 | 0.00 | 0.00 | 43 | 1019.5 |
| 20260501212255 | 20 | 98 | 0.0 | 0.0 | 0.00 | 0.00 | 0.00 | 43 | 1019.5 |
| 20260501211754 | 20 | 98 | 0.0 | 0.0 | 0.00 | 0.00 | 0.00 | 42 | 1019.5 |
| 20260501211254 | 20 | 98 | 0.0 | 0.0 | 0.00 | 0.00 | 0.00 | 42 | 1019.5 |
| 20260501210754 | 20 | 98 | 0.0 | 1.6 | 0.00 | 0.00 | 0.00 | 42 | 1019.5 |
| 20260501210254 | 20 | 98 | 0.0 | 0.0 | 0.00 | 0.00 | 0.00 | 42 | 1019.4 |
| 20260501205753 | 20 | 230 | 0.0 | 0.0 | 0.00 | 0.00 | 0.00 | 41 | 1019.4 |
| 20260501205253 | 20 | 230 | 0.0 | 0.0 | 0.00 | 0.00 | 0.00 | 41 | 1019.5 |
| 20260501204753 | 20 | 230 | 0.0 | 0.0 | 0.00 | 0.00 | 0.00 | 41 | 1019.4 |
| 20260501204252 | 20 | 230 | 0.0 | 0.0 | 0.00 | 0.00 | 0.00 | 40 | 1019.4 |
| 20260501203752 | 21 | 230 | 0.0 | 0.0 | 0.00 | 0.00 | 0.00 | 40 | 1019.5 |
| 20260501203252 | 21 | 230 | 0.0 | 0.0 | 0.00 | 0.00 | 0.00 | 39 | 1019.5 |
| 20260501202752 | 21 | 230 | 0.0 | 0.0 | 0.00 | 0.00 | 0.00 | 39 | 1019.4 |
| 20260501202251 | 21 | 230 | 0.0 | 0.0 | 0.00 | 0.00 | 0.00 | 38 | 1019.5 |
| 20260501201751 | 22 | 230 | 0.0 | 0.0 | 0.00 | 0.00 | 0.00 | 37 | 1019.5 |
| 20260501201251 | 22 | 230 | 0.0 | 1.6 | 0.00 | 0.00 | 0.00 | 36 | 1019.5 |
| 20260501200750 | 22 | 237 | 0.0 | 0.0 | 0.00 | 0.00 | 0.00 | 36 | 1019.5 |
| 20260501200250 | 22 | 237 | 0.0 | 0.0 | 0.00 | 0.00 | 0.00 | 35 | 1019.4 |
| 20260501195750 | 22 | 237 | 0.0 | 0.0 | 0.00 | 0.00 | 0.00 | 34 | 1019.4 |
| 20260501195250 | 23 | 237 | 0.0 | 0.0 | 0.00 | 0.00 | 0.00 | 34 | 1019.4 |
| 20260501194749 | 23 | 237 | 0.0 | 0.0 | 0.00 | 0.00 | 0.00 | 33 | 1019.4 |
| 20260501194249 | 23 | 237 | 0.0 | 0.0 | 0.00 | 0.00 | 0.00 | 32 | 1019.4 |
| 20260501193749 | 23 | 237 | 0.0 | 0.0 | 0.00 | 0.00 | 0.00 | 31 | 1019.3 |
| 20260501193248 | 23 | 237 | 0.0 | 0.0 | 0.00 | 0.00 | 0.00 | 31 | 1019.4 |
| 20260501192748 | 24 | 237 | 0.0 | 0.0 | 0.00 | 0.00 | 0.00 | 30 | 1019.3 |
| 20260501192248 | 24 | 237 | 0.0 | 0.0 | 0.00 | 0.00 | 0.00 | 30 | 1019.3 |
| 20260501191748 | 24 | 237 | 0.0 | 0.0 | 0.00 | 0.00 | 0.00 | 29 | 1019.2 |
| 20260501191247 | 24 | 237 | 0.0 | 0.0 | 0.00 | 0.00 | 0.00 | 29 | 1019.2 |
| 20260501190747 | 25 | 237 | 0.0 | 0.0 | 0.00 | 0.00 | 0.00 | 28 | 1019.2 |
| 20260501190247 | 25 | 237 | 0.0 | 0.0 | 0.00 | 0.00 | 0.00 | 28 | 1019.2 |
| 20260501185746 | 25 | 237 | 0.0 | 0.0 | 0.00 | 0.00 | 0.00 | 27 | 1019.2 |
| 20260501185246 | 25 | 237 | 0.0 | 0.0 | 0.00 | 0.00 | 0.00 | 26 | 1019.2 |
| 20260501184746 | 25 | 237 | 0.0 | 0.0 | 0.00 | 0.00 | 0.00 | 26 | 1019.2 |
| 20260501184246 | 25 | 237 | 0.0 | 1.6 | 0.00 | 0.00 | 0.00 | 26 | 1019.2 |
| 20260501183745 | 26 | 270 | 0.0 | 3.2 | 0.00 | 0.00 | 0.00 | 25 | 1019.2 |
| 20260501183245 | 26 | 234 | 0.0 | 0.0 | 0.00 | 0.00 | 0.00 | 25 | 1019.2 |
| 20260501182745 | 26 | 234 | 0.0 | 0.0 | 0.00 | 0.00 | 0.00 | 25 | 1019.2 |
| 20260501182244 | 26 | 234 | 0.0 | 4.8 | 0.00 | 0.00 | 0.00 | 24 | 1019.2 |
| 20260501181744 | 26 | 271 | 1.6 | 1.6 | 0.00 | 0.00 | 0.00 | 24 | 1019.2 |
| 20260501181244 | 26 | 247 | 0.0 | 0.0 | 0.00 | 0.00 | 0.00 | 23 | 1019.0 |
| 20260501180744 | 27 | 247 | 0.0 | 0.0 | 0.00 | 0.00 | 0.00 | 23 | 1019.0 |
| 20260501180243 | 27 | 247 | 0.0 | 0.0 | 0.00 | 0.00 | 0.00 | 22 | 1019.0 |
| 20260501175743 | 27 | 247 | 0.0 | 3.2 | 0.00 | 0.00 | 0.00 | 21 | 1019.0 |
| 20260501175243 | 28 | 205 | 0.0 | 4.8 | 0.00 | 0.00 | 0.00 | 20 | 1019.0 |
| 20260501174742 | 28 | 234 | 0.0 | 1.6 | 0.00 | 0.00 | 0.00 | 19 | 1019.0 |
| 20260501174242 | 29 | 222 | 0.0 | 0.0 | 0.00 | 0.00 | 0.00 | 19 | 1018.9 |
| 20260501173742 | 29 | 30 | 0.0 | 6.4 | 0.00 | 0.00 | 0.00 | 18 | 1019.0 |
| 20260501173242 | 30 | 227 | 1.6 | 6.4 | 0.00 | 0.00 | 0.00 | 18 | 1018.9 |
| 20260501172741 | 30 | 299 | 0.0 | 0.0 | 0.00 | 0.00 | 0.00 | 17 | 1019.0 |
| 20260501172241 | 30 | 299 | 0.0 | 6.4 | 0.00 | 0.00 | 0.00 | 17 | 1019.0 |
| 20260501171741 | 30 | 216 | 0.0 | 9.7 | 0.00 | 0.00 | 0.00 | 17 | 1019.2 |
| 20260501171240 | 30 | 255 | 0.0 | 8.0 | 0.00 | 0.00 | 0.00 | 17 | 1019.2 |
| 20260501170740 | 30 | 54 | 0.0 | 14.5 | 0.00 | 0.00 | 0.00 | 17 | 1019.2 |
| 20260501170240 | 30 | 240 | 4.8 | 11.3 | 0.00 | 0.00 | 0.00 | 16 | 1019.2 |
| 20260501165740 | 31 | 272 | 6.4 | 8.0 | 0.00 | 0.00 | 0.00 | 16 | 1019.3 |
| 20260501165239 | 31 | 178 | 0.0 | 4.8 | 0.00 | 0.00 | 0.00 | 16 | 1019.3 |
| 20260501164739 | 31 | 247 | 0.0 | 9.7 | 0.00 | 0.00 | 0.00 | 16 | 1019.3 |
| 20260501164239 | 31 | 11 | 0.0 | 4.8 | 0.00 | 0.00 | 0.00 | 15 | 1019.4 |
| 20260501163739 | 31 | 61 | 1.6 | 14.5 | 0.00 | 0.00 | 0.00 | 15 | 1019.5 |
| 20260501163238 | 31 | 203 | 1.6 | 4.8 | 0.00 | 0.00 | 0.00 | 15 | 1019.5 |
| 20260501162738 | 32 | 267 | 0.0 | 4.8 | 0.00 | 0.00 | 0.00 | 15 | 1019.5 |
| 20260501162238 | 32 | 113 | 1.6 | 9.7 | 0.00 | 0.00 | 0.00 | 14 | 1019.6 |
| 20260501161737 | 32 | 217 | 6.4 | 9.7 | 0.00 | 0.00 | 0.00 | 14 | 1019.7 |
| 20260501161237 | 32 | 237 | 0.0 | 6.4 | 0.00 | 0.00 | 0.00 | 14 | 1019.7 |
| 20260501160737 | 32 | 84 | 0.0 | 1.6 | 0.00 | 0.00 | 0.00 | 14 | 1019.7 |